Defiance, OH

6:55 AM EDT on June 26, 2017 (GMT -0400)
Defiance Memorial

Weather History for KDFI - October, 2010

Change the Weather History Date:

Tuesday, October 5, 2010

  Actual Average Record
Temperature  
Mean Temperature 55 °F -  
Max Temperature 68 °F 68 °F 92 °F (1951)
Min Temperature 44 °F 43 °F 26 °F (1965)
Degree Days  
Heating Degree Days 10    
Growing Degree Days 5 (Base 50)    
Moisture  
Dew Point 35 °F    
Average Humidity 55    
Maximum Humidity 82    
Minimum Humidity 22    
Precipitation  
Precipitation 0.00 in - - ()
Sea Level Pressure  
Sea Level Pressure 30.29 in    
Wind  
Wind Speed 7 mph (NNW)    
Max Wind Speed 16 mph    
Max Gust Speed 21 mph    
Visibility 10 miles    
Events      
Averages and records for this station are not official NWS values.
T = Trace of Precipitation, MM = Missing Value Source: NWS Daily Summary

Daily Weather History Graph

Daily Weather History Graph

Search for Another Location

Airport or City:

Trip Planner

Search our weather history database for the weather conditions in past years. The results will help you decide how hot, cold, wet, or windy it might be!

Date:

Astronomy

Oct. 05, 2010 Rise Set
Actual Time 7:38 AM EDT 7:12 PM EDT
Civil Twilight 7:11 AM EDT 7:40 PM EDT
Nautical Twilight 6:39 AM EDT 8:12 PM EDT
Astronomical Twilight 6:06 AM EDT 8:44 PM EDT
Moon 4:58 AM EDT (10/5) 5:44 PM EDT (10/5)
Length of Visible Light 12h 29m
Length of Day
11h 34m
Waning Crescent, 7% of the Moon is Illuminated
Oct 5
Waning Crescent
Oct 7
New
Oct 14
First Quarter
Oct 22
Full
Oct 30
Last Quarter

Hourly Weather History & Observations

Time (EDT) Temp. Windchill Dew Point Humidity Pressure Visibility Wind Dir Wind Speed Gust Speed Precip Events Conditions
12:53 AM 45.0 °F 41.8 °F 39.0 °F 80% 30.31 in 10.0 mi NNW 5.8 mph - N/A   Clear
1:53 AM 45.0 °F 41.8 °F 37.9 °F 76% 30.30 in 10.0 mi NW 5.8 mph - N/A   Clear
2:53 AM 44.1 °F - 37.9 °F 79% 30.32 in 10.0 mi Calm Calm - N/A   Clear
3:53 AM 44.1 °F 40.1 °F 37.9 °F 79% 30.30 in 10.0 mi NW 6.9 mph - N/A   Clear
4:53 AM 44.1 °F 42.5 °F 39.0 °F 82% 30.32 in 10.0 mi NNW 3.5 mph - N/A   Clear
5:53 AM 44.1 °F 41.5 °F 37.9 °F 79% 30.32 in 10.0 mi NNW 4.6 mph - N/A   Mostly Cloudy
6:53 AM 44.1 °F 42.5 °F 37.0 °F 76% 30.33 in 10.0 mi NW 3.5 mph - N/A   Clear
7:53 AM 45.0 °F 41.8 °F 37.9 °F 76% 30.34 in 10.0 mi NW 5.8 mph - N/A   Scattered Clouds
8:53 AM 48.0 °F - 39.0 °F 71% 30.35 in 10.0 mi NNW 5.8 mph - N/A   Mostly Cloudy
9:53 AM 51.1 °F - 39.0 °F 63% 30.35 in 10.0 mi NNW 10.4 mph - N/A   Overcast
10:53 AM 55.0 °F - 36.0 °F 49% 30.35 in 10.0 mi North 11.5 mph 20.7 mph N/A   Partly Cloudy
11:53 AM 57.0 °F - 35.1 °F 44% 30.34 in 10.0 mi North 10.4 mph - N/A   Clear
12:53 PM 63.0 °F - 28.0 °F 27% 30.33 in 10.0 mi North 11.5 mph 19.6 mph N/A   Clear
1:53 PM 63.0 °F - 25.0 °F 24% 30.30 in 10.0 mi NNW 16.1 mph 19.6 mph N/A   Clear
2:53 PM 64.9 °F - 25.0 °F 22% 30.28 in 10.0 mi NNW 11.5 mph 19.6 mph N/A   Clear
3:53 PM 66.9 °F - 27.0 °F 22% 30.25 in 10.0 mi NNW 12.7 mph 18.4 mph N/A   Clear
4:53 PM 66.9 °F - 30.0 °F 25% 30.24 in 10.0 mi NW 11.5 mph - N/A   Clear
5:53 PM 64.9 °F - 32.0 °F 29% 30.23 in 10.0 mi NNW 12.7 mph - N/A   Clear
6:53 PM 61.0 °F - 34.0 °F 36% 30.23 in 10.0 mi NNW 6.9 mph - N/A   Clear
7:53 PM 54.0 °F - 35.1 °F 49% 30.23 in 10.0 mi NW 4.6 mph - N/A   Clear
8:53 PM 54.0 °F - 36.0 °F 51% 30.23 in 10.0 mi NW 3.5 mph - N/A   Clear
9:53 PM 53.1 °F - 36.0 °F 52% 30.23 in 10.0 mi Calm Calm - N/A   Clear
10:53 PM 52.0 °F - 37.9 °F 59% 30.22 in 10.0 mi NW 6.9 mph - N/A   Clear
11:53 PM 50.0 °F - 39.0 °F 66% 30.21 in 10.0 mi WNW 4.6 mph - N/A   Clear